This demonstration page uses our WeatherBlox Daily Observations layout. Learn more.

Left ArrowRight Arrow

Hourly Observations for November 10, 2022

Temp ( °F °C ) Dew Point ( °F °C ) Humidity (%) Winds ( mph kmh ) Pressure ( in mb ) Visibility ( mi km ) Precip ( " mm )
12:55 am 00:55 Partly Cloudy 65 18.6 60 15.3 81 81 SE 14 22 29.78 1009 10 16 0.00 0.00
1:55 am 01:55 Cloudy 69 20.4 60 15.6 74 74 SSE 21 33 29.74 1007 10 16 0.00 0.00
2:55 am 02:55 Mostly Cloudy 68 20 60 15.6 76 76 SSE 22 35 29.72 1007 10 16 0.00 0.00
3:55 am 03:55 Mostly Cloudy 68 20 60 15.6 76 76 S 17 28 29.71 1006 10 16 0.00 0.00
4:55 am 04:55 Cloudy 68 20.2 60 15.8 76 76 S 17 28 29.71 1006 10 16 0.00 0.00
5:08 am 05:08 Cloudy with Light Showers 68 20 61 16 78 78 S 14 22 29.72 1007 10 16 0.00 0.00
5:55 am 05:55 Cloudy 68 19.9 61 15.9 78 78 S 13 20 29.72 1007 10 16 0.00 0.00
6:55 am 06:55 Mostly Cloudy 68 20.2 60 15.8 76 76 S 13 20 29.72 1006 10 16 0.00 0.00
7:16 am 07:16 Mostly Cloudy 66 19 57 14 73 73 W 23 37 29.74 1007 10 16 0.00 0.00
7:20 am 07:20 Mostly Cloudy with Light Rain 63 17 52 11 68 68 WNW 23 37 29.75 1007 7 11 0.00 0.00
7:31 am 07:31 Mostly Cloudy 50 10 43 6 76 76 WNW 23 37 29.78 1008 10 16 0.00 0.00
7:55 am 07:55 Mostly Cloudy 46 7.5 38 3.2 74 74 WNW 20 31 29.82 1010 10 16 0.00 0.00
8:55 am 08:55 Cloudy 43 6.3 34 1.2 70 70 WNW 18 30 29.89 1012 10 16 0.00 0.00
9:34 am 09:34 Cloudy with Drizzle 41 5 34 1 75 75 WNW 20 31 29.93 1013 10 16 0.00 0.00
9:55 am 09:55 Cloudy with Drizzle 40 4.6 35 1.6 81 81 WNW 16 26 29.95 1014 8 13 0.00 0.00
10:01 am 10:01 Cloudy with Light Rain 39 4 36 2 87 87 WNW 17 28 29.94 1014 7 11 0.00 0.00
10:55 am 10:55 Cloudy 40 4.7 33 0.5 74 74 WNW 18 30 29.98 1015 10 16 0.00 0.00
11:55 am 11:55 Cloudy 42 5.7 33 0.3 68 68 WNW 18 30 29.98 1015 10 16 0.00 0.00
12:55 pm 12:55 Mostly Cloudy 45 7.3 32 -0.2 59 59 WNW 21 33 29.99 1016 10 16 0.00 0.00
1:55 pm 13:55 Partly Cloudy 45 7.2 30 -1.2 55 55 WNW 22 35 29.99 1016 10 16 0.00 0.00
2:55 pm 14:55 Mostly Sunny 45 7.2 28 -2 52 52 WNW 21 33 30.01 1016 10 16 0.00 0.00
3:55 pm 15:55 Sunny 44 6.9 26 -3.4 48 48 NW 13 20 30.03 1017 10 16 0.00 0.00
7:55 pm 19:55 Clear 34 1.1 19 -7.4 53 53 NW 16 26 30.13 1020 10 16 0.00 0.00
9:55 pm 21:55 Clear 30 -1.3 17 -8.5 58 58 WNW 15 24 30.19 1022 10 16 0.00 0.00
10:55 pm 22:55 Clear 28 -2.4 16 -9.1 60 60 NW 14 22 30.20 1023 10 16 0.00 0.00
11:55 pm 23:55 Clear 26 -3.4 12 -10.9 56 56 NW 17 28 30.23 1024 10 16 0.00 0.00

Powered by AerisWeather